Home   Weather   Cham   Past weeks

Flag for Switzerland Past Weather in Cham, Zug, Switzerland — Yesterday and Last 2 Weeks

Now
24 °F

Cold.


Feels Like: 24 °F
Forecast: 16 / 27 °F
Wind: 1 mph from South

Location: Zuerich-Fluntern

Current Time: Jan 23, 2017 at 3:58:49 pm

Latest Report: Jan 23, 2017 at 3:00 pm


Visibility: N/A

Pressure: 30.28 "Hg

Humidity: 86%

Dew Point: 20 °F

Location of ChamLocation

Past Weather in Cham — Graph

°F

Cham Temperature Yesterday

Maximum temperature yesterday: 23 °F (at 4:00 pm)
Minimum temperature yesterday: 18 °F (at 8:00 am)
Average temperature yesterday: 20 °F

High & Low Weather Summary for the Past Weeks

 TemperatureHumidityPressure
High41 °F (Jan 12, 2:00 pm)99% (Jan 10, 6:00 pm)30.55 "Hg (Jan 10, 6:00 pm)
Low18 °F (Jan 22, 8:00 am)65% (Jan 13, 12:00 pm)29.55 "Hg (Jan 13, 12:00 am)
Average27 °F86%30.25 "Hg
* Reported Jan 8 2:00 pm — Jan 23 2:00 pm, Cham, Weather by CustomWeather, © 2017

Note: Actual official high and low records may vary slightly from our data, if they occured in-between our weather recording intervals... More about our weather records

Advertising

Cham Weather History for the Previous 24 Hours

Scroll right to see more
 ConditionsComfort  
Time TempWeatherWind HumidityBarometerVisibility
2:00 pm
Mon, Jan 23
23 °FCold.2 mph89%30.28 "HgN/A
1:00 pm22 °FOvercast.1 mph90%30.31 "HgN/A
12:00 pm22 °FCold.1 mph92%30.32 "HgN/A
11:00 am21 °FCold.1 mph95%30.33 "HgN/A
10:00 am21 °FCold.2 mph94%30.33 "HgN/A
9:00 am20 °FCold.2 mph94%30.33 "HgN/A
8:00 am20 °FCold.1 mph94%30.32 "HgN/A
7:00 am21 °FCold.2 mph94%30.31 "HgN/A
6:00 am20 °FCold.1 mph93%30.31 "HgN/A
5:00 am21 °FCold.1 mph96%30.31 "HgN/A
4:00 am21 °FCold.1 mph96%30.32 "HgN/A
3:00 am20 °FCold.1 mph97%30.33 "HgN/A
2:00 am21 °FCold.No wind95%30.33 "HgN/A
1:00 am21 °FCold.1 mph95%30.33 "HgN/A
12:00 am22 °FCold.1 mph94%30.34 "HgN/A
11:00 pm
Sun, Jan 22
22 °FCold.No wind95%30.34 "HgN/A
10:00 pm22 °FCold.2 mph94%30.34 "HgN/A
9:00 pm22 °FCold.1 mph93%30.34 "HgN/A
8:00 pm22 °FCold.2 mph91%30.33 "HgN/A
7:00 pm22 °FOvercast.2 mph90%30.32 "HgN/A
6:00 pm22 °FCold.1 mph89%30.31 "HgN/A
5:00 pm23 °FCold.2 mph87%30.30 "HgN/A
4:00 pm23 °FCold.2 mph86%30.31 "HgN/A
3:00 pm22 °FCold.1 mph86%30.30 "HgN/A
Weather by CustomWeather, © 2017

See weather overviewHow to use our weather pages